{"data":{"norad_id":62833,"epoch":"2026-05-25T04:00:03.998880Z","epoch_age_seconds":59906,"freshness":"FRESH","line1":"1 62833U 25019E   26145.16671295  .00027476  00000+0  21716-3 0  9999","line2":"2 62833  43.0009 205.3096 0001474 256.7540 159.0658 15.70812347  5984","mean_motion":15.70812347,"eccentricity":0.0001474,"inclination_deg":43.0009,"raan_deg":205.3096,"arg_perigee_deg":256.754,"mean_anomaly_deg":159.0658,"bstar":0.00021716,"rev_number":598,"period_min":91.672312275249,"perigee_km":355.58140376124,"apogee_km":357.56679659357,"semimajor_km":6734.7111001774,"source":"CELESTRAK","updated_at":"2026-05-25T13:38:19.778729Z"}}